Tracking 35237 objects as of 5-Sep-2026
HD Live streaming from Space Station
objects crossing your sky now

RADCAL

Track RADCAL now!
10-day predictions
RADCAL is classified as:


NORAD ID: 22698
Int'l Code: 1993-041A
Launch date: June 25, 1993
Source: United States (US)
Launch site: AIR FORCE WESTERN TEST RANGE (AFWTR)

This spacecraft was used to help calibrate radar target cross section data.
Your satellite tracking list
Your tracking list is empty




NASA's NSSDC Master Catalog

Two Line Element Set (TLE):
1 22698U 93041A   26248.42809647  .00000100  00000-0  36710-4 0  9998
2 22698  89.4986  55.7348 0085919 283.9899  75.1751 14.24201107723612
Source of the keplerian elements: AFSPC